Temp
17 18 18 19 19 20 20 21 21 22 22 23 23 22 23 24 25 24 20 17 19 24 24 25 30 29 29 30 31 32 29 27 26 25 21 22 21 20 21 19 19 18 17 16 16
17 18 19 19 19 20 20 21 21 21 20 23 24 23 23 23 26 25 19 21 22 24 27 30 30 30 29 29 31 31 27 24 25 24 22 22 21 20 21 19 18 18 17 16 16
18 18 19 19 19 20 20 21 21 21 20 21 22 22 23 23 28 24 20 21 23 24 27 28 29 29 27 27 27 27 24 23 23 23 23 21 20 21 20 19 18 18 17 17 17
18 19 19 20 20 20 20 20 21 22 22 22 24 24 24 23 24 22 21 23 24 24 27 28 29 27 26 25 25 23 23 22 21 21 22 21 20 19 19 18 18 17 17 17 17
18 19 19 20 20 20 20 20 20 21 22 22 23 24 26 25 22 21 22 25 25 26 28 29 28 27 25 24 24 22 21 21 20 20 20 20 19 18 17 17 17 16 16 17 16
18 19 19 20 20 21 21 20 21 21 22 23 24 25 26 22 22 22 22 24 25 27 27 27 27 26 25 24 24 22 21 20 20 19 18 19 18 18 17 17 16 16 17 17 16
18 19 19 20 20 20 21 21 21 21 21 22 22 23 23 22 22 23 22 23 24 25 25 24 24 26 24 22 22 21 20 21 20 19 19 19 18 19 18 17 17 17 18 17 16
18 19 19 20 20 21 21 21 21 21 21 22 23 23 22 21 22 23 23 23 23 23 23 23 24 25 23 22 22 23 24 24 20 20 18 18 21 19 18 18 18 18 18 17 17
18 19 19 20 20 21 21 21 21 21 22 23 25 25 23 22 22 22 23 24 23 24 23 24 24 23 23 25 25 25 25 24 21 20 20 20 21 20 19 18 18 18 18 18 18
18 19 20 20 20 20 21 22 23 23 23 23 25 26 23 23 22 23 23 23 24 25 26 27 27 26 26 27 24 23 24 24 23 21 20 21 21 21 20 19 18 18 18 18 18
19 19 18 20 21 21 21 22 25 25 24 24 24 24 24 23 23 24 22 25 26 27 25 26 24 22 21 22 22 22 23 23 23 20 18 21 21 22 21 20 19 19 19 19 18
19 19 20 19 21 21 22 25 22 24 23 24 24 24 23 24 25 23 25 26 26 25 25 26 21 20 21 20 21 22 22 22 21 19 18 21 21 22 21 20 19 18 18 18 18
19 20 20 20 20 22 22 21 21 22 26 23 24 24 23 24 22 22 24 23 25 24 24 23 20 19 20 21 21 22 19 19 20 20 21 20 22 21 20 19 19 19 19 18 18
19 20 20 21 21 22 22 20 20 19 27 24 25 24 24 24 22 22 22 23 23 23 22 21 19 19 22 21 20 23 18 18 19 20 22 20 20 22 19 20 20 19 19 18 17
18 19 20 21 21 24 20 19 19 20 25 24 24 23 25 24 23 23 21 24 23 22 21 20 20 21 22 18 19 20 17 18 19 20 20 21 21 21 20 20 19 19 18 17 17
18 19 20 21 20 18 18 18 19 25 23 24 25 24 25 24 23 23 23 23 22 23 22 21 20 20 19 19 19 19 20 21 19 21 21 20 19 21 19 19 19 18 17 17 16
17 18 18 18 21 17 18 21 24 21 24 24 24 25 25 24 23 23 23 23 24 24 24 22 21 20 18 21 20 22 22 24 23 23 22 17 18 18 19 19 17 17 17 17 16
17 17 17 16 16 17 20 25 18 25 26 25 25 24 25 24 23 23 24 25 23 23 25 25 24 20 18 18 18 20 20 19 18 21 21 18 17 18 19 19 18 18 17 17 16
17 17 18 17 18 17 24 22 24 26 26 25 25 24 25 24 23 23 24 24 22 22 22 22 23 19 18 18 18 19 20 18 17 18 18 21 20 18 20 20 19 18 17 16 16
19 20 19 18 18 19 25 21 24 24 24 25 25 25 26 25 23 24 23 22 21 20 21 21 22 19 17 18 18 18 18 18 19 17 17 20 20 20 19 18 18 17 16 16 16
19 23 17 18 18 24 23 24 23 23 23 24 25 25 25 24 24 24 23 21 20 20 20 21 20 20 18 18 20 19 20 17 17 18 18 18 20 18 18 18 17 17 16 16 15
20 23 18 17 23 24 23 23 16 23 22 23 23 24 24 24 24 23 23 22 19 19 20 19 19 20 23 19 19 19 19 19 18 19 19 16 16 20 18 18 18 17 16 16 15
23 23 18 18 17 20 21 22 22 22 23 23 23 23 23 23 22 23 22 18 18 19 19 19 20 20 21 18 18 18 19 18 18 16 15 18 21 20 20 18 17 17 16 16 14
22 18 22 22 22 23 22 23 22 21 22 22 22 22 22 22 23 22 21 18 17 18 12 15 19 19 20 21 21 19 19 19 17 16 18 19 20 22 20 12 15 15 15 15 15
22 21 21 14 20 22 22 22 22 21 21 21 22 22 22 22 22 22 22 18 16 12 16 17 18 20 20 20 21 20 19 19 16 14 15 19 15 16 15 10 8 13 14 14 14
22 22 21 21 20 21 18 22 23 23 22 21 21 22 22 21 23 22 22 21 21 17 17 17 18 19 18 21 15 18 19 19 19 18 14 14 15 19 20 20 17 15 14 13 13
19 18 21 17 21 21 22 22 22 23 22 22 22 22 21 22 22 21 21 20 20 19 17 17 17 19 19 19 18 19 21 20 19 19 16 15 14 18 18 17 15 13 14 13 12
Height
826 824 823 821 820 818 817 817 816 814 810 807 808 808 806 803 802 802 803 815 803 797 793 788 785 784 783 782 778 767 792 811 816 820 847 845 850 855 857 860 862 865 869 875 875
828 826 825 824 823 820 819 818 817 815 809 805 805 806 806 804 803 802 816 808 803 799 792 790 789 785 789 789 780 780 805 828 826 831 842 844 849 856 854 859 864 868 873 875 874
829 828 828 826 825 823 822 820 819 816 813 808 807 806 806 805 801 815 813 809 806 803 800 797 795 794 801 802 802 805 827 833 839 839 840 849 854 855 855 859 866 869 871 874 873
833 832 830 829 828 827 825 823 819 817 816 813 811 807 805 807 826 825 816 812 808 805 802 798 795 801 808 818 818 827 833 840 847 849 847 853 856 862 859 867 871 874 876 874 872
835 834 833 831 830 829 827 825 822 819 818 816 813 810 810 813 830 829 822 813 811 807 803 802 803 807 817 825 829 837 844 848 853 855 858 859 861 865 871 873 876 878 877 874 873
838 836 835 834 833 831 830 828 826 823 822 819 816 813 812 821 836 832 826 820 814 809 808 809 810 812 821 826 829 843 848 853 855 860 864 861 867 868 871 876 876 875 873 873 874
840 839 837 836 835 834 832 831 829 828 825 823 821 821 820 839 838 834 831 826 822 819 819 820 819 816 829 840 843 847 852 852 855 860 862 864 865 862 867 873 871 871 870 869 871
842 841 839 837 836 835 835 833 831 829 828 826 824 825 834 842 839 836 834 832 829 828 826 826 825 825 830 839 841 837 832 832 856 859 863 865 848 859 864 866 865 865 865 866 866
844 843 842 840 838 837 837 836 834 832 830 827 826 825 839 842 841 840 837 835 833 831 830 829 828 832 837 828 826 823 828 838 851 857 859 858 848 852 861 863 863 860 859 860 861
846 845 844 842 841 840 839 838 835 831 830 829 828 826 844 846 844 841 840 837 835 830 825 822 818 824 825 813 839 844 838 833 842 852 855 850 845 845 855 859 860 859 858 857 856
848 847 845 844 842 841 840 837 835 836 836 838 840 841 844 845 843 841 840 834 829 825 833 830 839 854 855 850 849 848 844 843 841 856 861 846 845 841 843 852 855 853 852 851 851
849 848 847 845 843 841 840 836 841 841 846 844 844 845 847 844 841 845 838 834 829 839 835 831 858 864 858 859 857 851 849 849 849 860 863 842 843 837 841 849 853 855 853 851 850
850 849 848 847 845 845 844 845 846 845 836 849 847 847 850 849 852 851 847 846 840 844 844 845 868 869 864 857 858 851 862 864 861 853 847 845 835 842 844 852 850 847 845 846 846
851 850 849 848 849 847 847 849 848 847 834 852 847 850 849 848 855 855 853 851 849 853 852 861 872 870 855 856 863 844 867 866 862 853 842 850 847 831 846 842 837 842 844 844 844
852 851 851 850 849 846 852 850 848 847 852 852 849 853 848 849 853 853 855 848 855 857 861 868 866 863 857 871 869 863 871 868 860 853 848 841 839 832 836 838 840 842 844 844 845
853 852 852 852 852 854 852 850 849 847 869 855 849 852 850 849 853 854 854 856 858 854 854 863 867 866 869 869 868 866 857 848 858 849 845 850 854 834 844 843 841 844 846 845 845
854 853 853 853 852 853 851 849 850 870 853 855 852 850 849 853 855 855 855 855 851 855 848 858 861 867 872 860 859 852 841 829 837 833 835 861 858 849 840 843 847 846 844 844 845
855 855 854 854 854 852 853 842 883 848 845 846 848 852 852 853 856 858 855 850 854 855 846 845 851 866 873 875 877 864 862 868 873 847 845 855 858 849 843 840 841 839 841 841 842
857 856 857 855 854 853 849 861 852 841 841 849 851 854 852 856 858 856 856 856 863 863 864 859 853 872 877 877 878 865 865 873 876 861 862 831 836 842 832 832 836 838 840 840 841
857 856 856 855 854 854 847 865 851 850 849 845 852 849 848 852 859 856 856 864 867 870 867 864 864 869 878 878 878 877 877 872 863 872 867 837 835 834 836 838 837 838 840 840 841
858 850 856 855 855 847 854 850 853 854 853 854 851 851 849 853 855 854 857 868 870 872 870 866 869 869 875 873 861 869 863 876 877 868 865 855 833 836 839 839 840 838 839 839 841
855 849 857 856 850 845 850 851 865 854 856 855 856 854 855 854 855 858 859 864 873 873 871 875 872 867 849 864 867 866 865 865 870 857 856 871 858 828 836 838 835 836 837 839 841
848 850 857 857 870 861 856 856 854 856 854 857 856 857 857 857 864 859 863 879 879 876 876 876 869 865 857 869 870 869 862 865 865 876 878 861 829 826 828 832 835 836 836 837 840
851 862 853 854 850 849 853 852 856 860 857 857 857 859 860 860 857 861 865 880 882 879 893 889 873 872 864 851 851 861 861 862 869 872 855 844 830 820 825 845 840 840 838 838 837
850 853 854 874 857 851 852 851 852 858 859 858 857 858 857 861 858 861 859 877 884 893 887 884 876 862 856 852 849 850 852 853 864 871 868 834 851 841 840 848 851 842 837 838 836
851 850 854 852 855 853 860 851 849 848 854 856 859 853 854 860 855 860 859 864 863 881 882 880 874 864 860 840 867 853 844 843 844 846 863 859 848 829 823 821 828 833 835 837 836
859 858 854 859 852 852 849 848 849 847 852 851 853 853 857 855 854 859 860 863 863 868 876 876 873 864 856 846 851 843 823 829 832 833 844 852 840 827 825 826 829 833 831 833 837
Wind_Speed
11 13 15 15 15 12 9 7 8 14 12 12 9 7 7 12 20 27 27 21 14 10 11 11 6 9 15 14 5 4 11 12 9 11 11 6 12 11 10 12 13 10 11 7 6
11 12 13 14 15 14 9 6 5 17 19 6 10 11 8 7 13 35 29 14 6 14 10 11 15 15 15 15 13 10 12 12 13 14 12 8 11 6 4 8 8 8 7 4 5
11 12 12 12 13 14 16 13 6 4 20 21 11 2 6 6 8 22 30 18 10 10 8 8 12 17 20 18 8 19 18 15 15 11 11 11 8 1 3 6 6 5 5 5 7
10 10 10 10 13 11 12 12 9 2 2 11 23 22 6 7 6 22 28 21 9 5 3 4 4 11 14 12 15 22 16 16 13 7 6 9 7 7 5 8 5 4 5 6 9
9 9 9 8 12 11 12 17 24 12 9 14 9 8 15 17 14 20 21 16 6 10 10 11 13 11 13 19 19 18 15 14 11 9 9 2 5 6 6 3 2 2 3 6 8
8 8 8 7 9 10 12 13 19 21 23 24 17 9 14 27 12 16 19 17 20 15 10 15 18 17 12 10 9 13 15 13 10 8 5 3 6 4 6 3 3 4 5 5 7
8 7 7 6 5 7 11 8 8 9 18 14 12 17 32 13 12 12 17 22 24 16 17 8 2 2 16 19 16 15 15 10 6 5 3 4 8 2 5 5 5 6 7 6 8
8 8 6 5 4 4 5 11 7 8 9 7 11 23 12 11 13 13 16 18 18 20 19 21 22 15 10 17 10 6 6 5 6 1 5 5 11 6 5 5 6 7 8 9 11
8 8 7 14 13 6 5 5 5 6 12 8 6 10 9 6 16 10 9 12 14 15 12 15 16 13 11 8 11 5 7 6 8 1 2 4 7 6 4 5 7 9 10 10 11
7 9 6 6 7 4 10 21 22 8 3 2 10 7 10 10 10 8 7 3 2 0 3 4 6 11 13 9 8 10 10 4 6 5 5 9 9 2 4 8 7 10 11 12 13
5 9 11 3 8 10 8 7 6 5 23 20 14 15 9 4 13 16 4 1 6 6 13 16 13 14 14 13 8 6 7 4 7 6 8 3 7 8 3 6 8 10 13 14 15
2 4 7 13 7 6 3 3 5 5 14 14 15 16 11 4 6 16 11 6 5 8 8 13 15 10 8 9 7 9 11 10 4 1 5 10 12 7 2 4 8 12 15 15 15
1 3 4 5 7 13 14 9 4 5 2 7 7 9 6 12 11 13 10 3 10 14 16 18 7 7 7 8 9 5 12 10 7 11 8 14 10 2 5 3 6 10 10 12 14
2 3 4 4 1 1 6 5 4 3 4 5 4 5 5 2 5 9 7 4 3 6 7 8 4 3 5 5 11 4 12 7 5 8 6 7 6 3 1 10 7 11 13 13 13
2 2 2 5 3 3 4 6 4 3 3 3 5 3 6 3 2 7 9 8 9 4 5 5 1 6 7 6 8 6 9 6 6 7 9 3 7 6 5 13 12 12 14 13 13
2 1 1 1 3 3 6 6 4 4 3 4 2 2 4 5 4 2 3 3 3 3 9 7 2 3 7 6 5 11 11 12 6 7 5 6 4 3 8 11 15 14 15 14 13
4 3 2 2 3 6 6 5 2 2 2 6 4 2 1 2 3 1 2 5 5 4 3 5 4 3 5 10 5 11 15 1 4 5 6 3 4 3 9 13 11 13 14 13 11
3 4 7 5 3 4 4 5 3 3 1 3 4 4 2 0 3 1 2 1 5 8 6 8 3 3 6 5 6 8 8 4 5 6 9 5 3 5 6 8 5 9 12 11 10
3 1 1 5 3 2 5 1 3 2 4 5 5 4 4 2 4 3 2 3 5 9 7 6 4 5 3 3 5 5 4 4 5 8 5 1 3 5 5 11 12 12 12 11 9
1 3 1 3 2 4 5 1 1 4 2 4 5 2 2 5 3 3 1 3 2 4 5 4 5 2 4 3 3 5 4 3 2 5 6 4 6 4 10 12 13 14 12 11 10
2 3 2 1 2 5 3 1 2 3 1 3 3 3 3 2 5 2 2 4 1 2 5 5 2 5 2 6 3 4 3 2 4 3 4 6 3 1 6 10 12 13 11 10 9
2 2 2 2 4 2 3 1 2 5 2 2 4 4 4 2 3 2 2 4 2 2 5 6 5 5 5 5 4 5 6 4 4 2 4 4 7 3 2 7 11 12 9 9 7
2 2 1 2 2 3 3 4 1 4 4 3 3 3 0 3 3 3 1 3 2 1 5 4 2 6 7 4 4 5 4 7 5 2 6 5 3 3 4 11 13 11 9 8 5
3 1 3 5 3 4 5 5 6 2 2 3 2 3 4 5 5 2 3 2 2 1 4 2 5 7 9 14 8 9 8 8 8 5 6 12 18 14 16 11 15 10 9 8 6
2 2 2 2 4 5 3 1 7 5 5 6 4 10 6 5 4 7 3 4 4 6 3 3 7 10 14 18 17 16 15 14 15 13 7 5 12 20 19 11 5 7 7 7 8
2 2 3 1 1 6 4 7 10 6 5 6 8 1 8 9 6 5 4 5 5 7 6 4 5 10 14 8 4 12 14 15 17 18 21 23 26 19 6 6 6 8 8 8 8
1 1 4 4 4 5 7 7 5 4 5 6 5 6 7 5 4 3 4 2 4 6 8 5 5 7 6 2 10 14 13 18 13 11 12 13 10 8 11 12 9 6 8 7 8
Wind_Direction
82 80 76 71 68 75 83 88 70 12 322 282 266 273 340 24 53 45 32 332 317 360 331 282 36 83 59 61 31 165 104 91 90 102 120 118 96 69 70 78 63 64 67 61 29
83 81 75 67 64 60 66 71 50 31 22 276 254 244 268 331 34 36 359 13 9 5 337 56 66 79 67 58 37 81 94 71 77 93 110 94 91 106 126 105 97 93 89 51 3
79 78 70 65 60 60 69 61 47 51 42 58 55 280 265 284 51 12 4 9 5 359 19 73 71 83 76 54 49 79 95 99 83 80 97 107 97 66 119 108 36 56 55 21 350
83 80 66 67 59 69 41 34 25 73 269 26 68 76 83 254 52 355 4 2 14 0 293 209 103 81 75 83 91 94 90 95 93 75 94 64 89 78 20 70 74 61 355 348 345
87 78 60 67 51 59 59 71 59 76 67 47 58 80 79 74 31 360 5 17 20 37 61 76 100 74 92 96 90 94 98 99 95 83 69 119 66 99 99 89 97 32 291 331 340
87 72 49 59 52 68 81 70 52 74 80 70 68 40 78 70 5 22 29 41 46 67 84 81 79 94 81 74 67 119 114 109 100 99 64 128 110 276 137 189 214 259 298 319 330
81 55 39 44 63 84 68 54 57 58 58 67 51 73 62 60 37 40 47 58 59 74 76 71 133 55 105 96 110 129 117 125 96 80 106 330 186 177 129 198 257 279 286 298 300
69 48 41 40 79 117 66 56 53 68 47 40 62 73 77 52 47 47 62 68 70 76 80 76 81 88 88 124 160 174 216 208 90 216 118 256 85 129 175 213 264 284 285 289 294
61 49 78 94 84 88 75 36 34 78 39 38 39 83 69 35 34 40 58 71 86 77 79 95 94 108 155 170 172 159 33 21 148 88 314 251 349 124 195 245 285 299 294 291 291
66 46 115 141 111 91 79 82 69 19 293 250 18 105 44 36 41 41 41 58 355 262 138 113 77 64 37 14 38 7 0 4 30 70 313 277 271 176 207 247 283 307 303 296 295
70 59 50 206 259 269 312 246 212 55 53 62 63 87 107 91 59 34 57 11 112 82 70 51 71 49 40 38 35 17 352 343 35 43 311 270 281 284 268 228 282 310 331 327 325
70 46 43 51 33 317 314 44 42 68 78 68 88 81 71 43 49 33 30 40 80 95 139 106 57 37 40 27 3 8 359 13 117 30 295 315 306 291 293 288 312 321 314 313 305
296 10 18 28 43 67 76 65 53 338 125 71 57 55 37 51 38 27 8 11 41 68 52 63 59 27 1 30 345 75 6 356 337 324 256 302 233 130 119 295 278 279 311 309 326
275 315 341 350 31 31 62 17 348 333 194 63 44 56 16 349 73 30 8 341 59 51 48 64 77 344 318 49 348 341 5 332 304 308 2 13 342 159 255 298 2 359 344 331 336
291 306 329 13 349 0 359 337 324 264 208 54 78 24 54 59 112 56 20 56 59 62 259 85 91 356 13 0 337 18 344 316 294 281 304 90 286 48 193 351 340 348 347 342 340
16 306 119 336 45 24 329 319 292 237 86 127 100 119 170 66 67 98 61 48 358 59 56 95 92 342 5 314 288 296 262 222 253 257 232 47 333 358 359 330 346 355 342 342 348
50 53 91 356 7 333 327 266 268 81 137 144 137 189 88 89 102 16 23 51 3 291 161 164 122 88 334 313 192 332 330 114 239 211 14 33 275 306 329 348 336 333 333 346 334
78 71 71 64 350 332 286 248 84 30 177 72 159 164 288 221 111 98 237 228 75 335 295 334 188 354 31 23 321 339 343 22 304 336 325 165 270 330 309 322 345 327 349 336 348
96 34 77 346 23 327 251 15 324 24 102 171 160 238 151 170 298 250 327 21 30 12 346 339 92 124 41 347 323 4 16 1 278 243 266 67 179 241 240 0 358 350 353 347 346
242 209 94 334 334 246 244 226 311 12 334 217 267 255 247 158 232 242 179 74 93 13 346 43 285 105 86 249 153 320 349 246 211 322 319 358 277 325 357 352 351 351 355 346 348
242 231 49 292 301 227 207 207 153 119 326 292 304 268 299 288 277 291 38 123 240 95 331 336 275 121 221 197 326 183 200 249 268 278 311 315 347 277 343 350 350 342 349 339 346
270 229 3 299 217 306 200 49 337 158 189 202 289 303 283 323 270 269 311 44 56 345 342 37 313 285 343 86 322 290 282 263 293 58 263 272 276 159 317 351 334 344 343 340 330
279 56 112 275 124 255 137 158 238 189 202 197 238 267 312 269 270 248 239 71 148 270 2 27 232 296 163 175 172 249 243 244 265 295 254 287 337 160 223 4 355 337 337 319 329
263 110 140 221 333 267 197 200 182 213 223 236 285 243 226 241 227 268 216 132 198 249 49 319 261 260 283 312 303 274 258 236 225 265 299 253 285 309 337 343 327 322 316 307 308
220 308 21 222 253 231 233 203 211 194 228 218 212 238 230 260 245 241 228 142 192 137 216 259 272 284 281 288 287 276 265 248 228 228 256 309 308 297 304 291 274 267 288 287 285
296 250 173 135 211 222 163 225 235 195 194 208 240 225 231 247 268 305 266 215 266 158 219 196 278 300 297 275 312 272 258 250 246 237 234 260 277 281 278 279 272 270 271 267 279
77 269 290 121 202 227 220 252 240 235 197 278 248 259 234 263 321 336 309 309 295 211 211 229 278 311 280 219 281 279 251 228 227 227 226 240 245 273 298 311 296 271 272 248 260